Regional Weather Roundup
Issued by NWS

Home | Current Version | Previous Version | Text Only | Print | Product List | Glossary Off
Versions: 1 2 3 4 5 6 7 8 9 10 11 12 13 14 15 16 17 18 19 20 21 22 23 24 25 26 27 28 29 30 31 32 33 34 35 36 37 38 39 40 41 42 43 44 45 46 47 48 49 50

000
ASUS43 KMKX 190011
RWRWI

WISCONSIN REGIONAL WEATHER ROUNDUP
NATIONAL WEATHER SERVICE MILWAUKEE/SULLIVAN WI
700 PM CDT SAT APR 18 2015

NOTE: "FAIR" INDICATES FEW OR NO CLOUDS BELOW 12,000 FEET WITH NO
SIGNIFICANT WEATHER AND/OR OBSTRUCTIONS TO VISIBILITY.

WIZ001-002-006>008-014>016-023>028-190100-
NORTHWEST WISCONSIN

CITY           SKY/WX    TMP DP  RH WIND       PRES   REMARKS
SUPERIOR ARPT  CLEAR     37  33  84 NE15G22   30.09F WCI  28
6HR MIN TEMP:  37; 6HR MAX TEMP:  44;

ASHLAND        CLEAR     40  33  76 N13       30.10F WCI  32
6HR MIN TEMP:  40; 6HR MAX TEMP:  52;

HAYWARD        MOCLDY    56  32  40 NE13      30.03S
6HR MIN TEMP:  56; 6HR MAX TEMP:  68;

SIREN          CLOUDY    64  33  31 NE7       29.99R
6HR MIN TEMP:  63; 6HR MAX TEMP:  71;

CUMBERLAND     CLOUDY    61  32  33 SE12      29.99F
RICE LAKE      CLOUDY    63  31  30 E10       30.01F
6HR MIN TEMP:  63; 6HR MAX TEMP:  69;

CHETEK         CLOUDY    62  35  36 E12G23    30.00F
6HR MIN TEMP:  62; 6HR MAX TEMP:  68;

LADYSMITH      CLOUDY    62  28  26 SE9       30.05S
6HR MIN TEMP:  62; 6HR MAX TEMP:  70;

EAU CLAIRE     MOCLDY    64  27  24 E14       29.98F
6HR MIN TEMP:  64; 6HR MAX TEMP:  72;

MENOMONIE      MOCLDY    65  28  24 E17G23    29.97F
6HR MIN TEMP:  65; 6HR MAX TEMP:  71;

NEW RICHMOND   CLOUDY    64  32  30 E12G21    29.95F
6HR MIN TEMP:  64; 6HR MAX TEMP:  71;

OSCEOLA        CLOUDY    65  35  31 E10       29.98F
6HR MIN TEMP:  65; 6HR MAX TEMP:  72;

$$

WIZ003>005-009-010-017-018-190100-
NORTH CENTRAL WISCONSIN

CITY           SKY/WX    TMP DP  RH WIND       PRES   REMARKS
MANITOWISH WTR CLEAR     59  22  24 E5        30.07F
6HR MIN TEMP:  57; 6HR MAX TEMP:  63;

ARBOR VITAE    CLEAR     62  20  20 SE8       30.08S
6HR MIN TEMP:  59; 6HR MAX TEMP:  64;

WOODRUFF       CLEAR     62  20  20 SE8       30.08S
6HR MIN TEMP:  59; 6HR MAX TEMP:  64;

RHINELANDER    PTCLDY    58  22  24 SE15      30.09F
6HR MIN TEMP:  58; 6HR MAX TEMP:  64;

EAGLE RIVER    CLEAR     58  15  18 SE6       30.09F
6HR MIN TEMP:  58; 6HR MAX TEMP:  63;

LAND O LAKES   CLEAR     58  18  21 SE8       30.10F
6HR MIN TEMP:  58; 6HR MAX TEMP:  63;

PHILLIPS       CLOUDY    61  28  29 E8        30.05S
6HR MIN TEMP:  60; 6HR MAX TEMP:  66;

TOMAHAWK       MOCLDY    57  18  22 SE3       30.09S
6HR MIN TEMP:  57; 6HR MAX TEMP:  65;

MEDFORD        CLOUDY    56  21  26 E12       30.06F
6HR MIN TEMP:  56; 6HR MAX TEMP:  63;

MERRILL        MOCLDY    57  17  20 SE8       30.09S
6HR MIN TEMP:  57; 6HR MAX TEMP:  65;

$$

WIZ029-030-035-036-043>047-190100-
CENTRAL WISCONSIN

CITY           SKY/WX    TMP DP  RH WIND       PRES   REMARKS
WAUSAU         PTCLDY    57  15  19 E9        30.07F
6HR MIN TEMP:  57; 6HR MAX TEMP:  64;

MOSINEE        NOT AVBL
MARSHFIELD     MOCLDY    59  25  27 E15       30.05F
6HR MIN TEMP:  59; 6HR MAX TEMP:  66;

STEVENS POINT  PTCLDY    55  16  21 E9        30.08F
6HR MIN TEMP:  55; 6HR MAX TEMP:  61;

WAUPACA        PTCLDY    58  22  25 NE8       30.10S
6HR MIN TEMP:  58; 6HR MAX TEMP:  64;

WAUTOMA        PTCLDY    60  25  26 E12       30.07F
6HR MIN TEMP:  60; 6HR MAX TEMP:  65;

WISC RAPIDS    PTCLDY    60  20  21 E12       30.06F
6HR MIN TEMP:  60; 6HR MAX TEMP:  65;

CAMP DOUGLAS   MOCLDY    61  25  25 E16       30.01F
$$

WIZ011>013-019>022-031-037>040-048>050-190100-
NORTHEAST WISCONSIN

CITY           SKY/WX    TMP DP  RH WIND       PRES   REMARKS
ANTIGO         CLEAR     53  15  22 E10       30.10F
SHAWANO        CLEAR     56  24  28 NE8       30.12S
6HR MIN TEMP:  56; 6HR MAX TEMP:  63;

OCONTO         CLEAR     53  23  31 E8        30.12S
6HR MIN TEMP:  53; 6HR MAX TEMP:  57;

STURGEON BAY   PTCLDY    54  21  28 NE15      30.15S
6HR MIN TEMP:  52; 6HR MAX TEMP:  57;

GREEN BAY      CLEAR     52  30  43 NE18      30.12S
6HR MIN TEMP:  52; 6HR MAX TEMP:  58;

MANITOWOC      CLEAR     49  27  42 NE12G17   30.11S
6HR MIN TEMP:  47; 6HR MAX TEMP:  53;

APPLETON       PTCLDY    55  21  26 NE12      30.10
CLINTONVILLE   CLEAR     54  16  22 E10       30.11S
OSHKOSH        CLEAR     56  35  45 NE8       30.08S
6HR MIN TEMP:  56; 6HR MAX TEMP:  61;

$$

WIZ032>034-041-042-053>061-190100-
SOUTHWEST WISCONSIN

CITY           SKY/WX    TMP DP  RH WIND       PRES   REMARKS
LA CROSSE      MOCLDY    68  34  28 E9        29.95S
6HR MIN TEMP:  68; 6HR MAX TEMP:  76;

SPARTA         MOCLDY    64  25  22 E15G23    30.00S
6HR MIN TEMP:  64; 6HR MAX TEMP:  71;

VIROQUA        MOCLDY    63  33  32 E16       29.97S
6HR MIN TEMP:  63; 6HR MAX TEMP:  71;

BOSCOBEL       PTCLDY    68  34  28 E9        29.96S
6HR MIN TEMP:  68; 6HR MAX TEMP:  76;

PRAIRIE DU CHI MOCLDY    69  33  27 E16G23    29.93S
6HR MIN TEMP:  69; 6HR MAX TEMP:  74;

PLATTEVILLE    CLOUDY    68  34  29 E13       29.96S
6HR MIN TEMP:  68; 6HR MAX TEMP:  73;

$$

WIZ056-057-062-063-064-067-068-190100-
SOUTH CENTRAL WISCONSIN

CITY           SKY/WX    TMP DP  RH WIND       PRES   REMARKS
REEDSBURG      CLEAR     63  31  30 E12       30.00F
6HR MIN TEMP:  63; 6HR MAX TEMP:  67;

BARABOO/DELLS  CLEAR     62  26  25 E13G21    30.02F
6HR MIN TEMP:  62; 6HR MAX TEMP:  67;

LONE ROCK      PTCLDY    65  31  28 E15       29.98F
6HR MIN TEMP:  65; 6HR MAX TEMP:  71;

MINERAL POINT  PTCLDY    64  30  27 E10       29.98R
MADISON        MOCLDY    63  32  31 E13       30.01F
6HR MIN TEMP:  63; 6HR MAX TEMP:  68;

MIDDLETON      CLEAR     65  28  25 E13       30.01F
6HR MIN TEMP:  65; 6HR MAX TEMP:  70;

WATERTOWN      CLEAR     59  33  38 NE14      30.02F
6HR MIN TEMP:  59; 6HR MAX TEMP:  68;

MONROE         PTCLDY    64  32  29 E13G18    29.98S
JANESVILLE     CLEAR     66  32  28 E16       29.99F
$$

WIZ051-052-058>065-066-070>072-190100-
SOUTHEAST WISCONSIN

CITY           SKY/WX    TMP DP  RH WIND       PRES   REMARKS
MILWAUKEE      PTCLDY    45  31  58 N22G31    30.07F
6HR MIN TEMP:  44; 6HR MAX TEMP:  48;

WAUKESHA       PTCLDY    54  30  40 E9G16     30.06F
MILWAUKEE/TIMM CLEAR     52  27  37 NE14      30.07F
RACINE         CLEAR     43  33  68 N18       30.06F
6HR MIN TEMP:  43; 6HR MAX TEMP:  49;

BURLINGTON     CLEAR     51  28  41 NE9G17    30.03F
6HR MIN TEMP:  51; 6HR MAX TEMP:  63;

KENOSHA        PTCLDY    48  33  56 NE16G26   30.03F
6HR MIN TEMP:  48; 6HR MAX TEMP:  58;

FOND DU LAC    CLEAR     59  27  29 NE12      30.07F
6HR MIN TEMP:  59; 6HR MAX TEMP:  65;

SHEBOYGAN      CLEAR     50  27  40 NE18G26   30.09F
6HR MIN TEMP:  50; 6HR MAX TEMP:  56;

WEST BEND      CLEAR     50  27  40 NE14G20   30.07F
JUNEAU         CLEAR     58  31  35 NE13      30.05F
6HR MIN TEMP:  58; 6HR MAX TEMP:  65;

$$

LSZ147-162-190100-
LAKE SUPERIOR

STATION/POSITION TIME  TEMP    WIND        PRES    WAVE
                       AIR SEA DIR/SP/G            HT/PER
                 (UTC) (F)     (DEG/KT/KT) (MB)    (FT/S)
DEVILS ISLAND    0000   37      50/ 20/ 23 1020.3F
PORT WING        2340   39      40/ 20/ 23 1019.3F
SAXON HARBOR     2340   40     320/  5/  6 1018.6F
$$

LMZ867-665-643>646-190100-
LAKE MICHIGAN

STATION/POSITION TIME  TEMP    WIND        PRES    WAVE
                       AIR SEA DIR/SP/G            HT/PER
                 (UTC) (F)     (DEG/KT/KT) (MB)    (FT/S)



USA.gov is the U.S. government's official web portal to all federal, state and local government web resources and services.